Overview Statistics Trail Chart Weather Telemetry Raw packets
 

This is the latest recevied weather packets stored in our database for station/object DG6YGE-6. If no packets are shown the sender has not sent any weather packets the latest 10 day(s).

<< 53 54 55 56 57 58 >>
Time Temp. Humidity Pressure Rain* Wind** Luminosity Snow
1787838551 29.44° C 54% 1010.8 hPa 0 mm - 279 W/m² -
1787837951 29.44° C 53% 1010.6 hPa 0 mm - 434 W/m² -
1787837352 29.44° C 54% 1010.6 hPa 0 mm - 745 W/m² -
1787836751 29.44° C 54% 1010.6 hPa 0 mm - 383 W/m² -
1787836151 28.89° C 54% 1010.7 hPa 0 mm - 672 W/m² -
1787835551 28.89° C 55% 1010.8 hPa 0 mm - 699 W/m² -
1787834951 28.33° C 57% 1010.7 hPa 0 mm - 358 W/m² -
1787834351 28.33° C 56% 1011 hPa 0 mm - 521 W/m² -
1787833751 28.33° C 56% 1011.1 hPa 0 mm - 325 W/m² -
1787833151 28.33° C 56% 1011.2 hPa 0 mm - 632 W/m² -
1787832551 27.78° C 56% 1011.3 hPa 0 mm - 341 W/m² -
1787831952 28.33° C 56% 1011.4 hPa 0 mm - 552 W/m² -
1787831351 27.78° C 57% 1011.5 hPa 0 mm - 487 W/m² -
1787830751 27.78° C 59% 1011.5 hPa 0 mm - 805 W/m² -
1787830151 27.22° C 60% 1011.6 hPa 0 mm - 657 W/m² -
1787829551 26.67° C 61% 1011.6 hPa 0 mm - 381 W/m² -
1787828951 26.11° C 64% 1011.9 hPa 0 mm - 810 W/m² -
1787828351 25.56° C 65% 1012 hPa 0 mm - 720 W/m² -
1787827752 25° C 67% 1011.9 hPa 0 mm - 433 W/m² -
1787827152 24.44° C 68% 1012.1 hPa 0 mm - 558 W/m² -
1787826551 24.44° C 68% 1012 hPa 0 mm - 532 W/m² -
1787825951 23.89° C 69% 1012.1 hPa 0 mm - 543 W/m² -
1787825351 23.89° C 70% 1012.1 hPa 0 mm - 574 W/m² -
1787824751 23.33° C 71% 1012.1 hPa 0 mm - 496 W/m² -
1787824151 22.78° C 72% 1012.4 hPa 0 mm - 455 W/m² -

* Rain latest hour (hover to see other rain measurements)
** Current wind speed in m/s (hover to see current wind gust speed)